KCVG Airport Diagram

We have created a template for each of the higher traffic airports in the vZID airspace. They include KCMH, KCRW, KCVG, KDAY, KIND, KLEX and KSDF. You wil find usefull information including the airport diagram, weather, and specific airport procedures.

KCVG Weather

[Source: ADDS]
METAR
KCVG 191352Z 27007KT 5SM BR BKN006 OVC007 09/08 A3005 RMK AO2 SLP174 T00940083 =
TAF
KCVG 191141Z 1912/2018 27008KT 6SM BR OVC006 FM191500 25004KT P6SM OVC007 FM191600 25004KT P6SM OVC010 FM191900 24004KT P6SM BKN025 FM192000 24004KT P6SM FEW025 SCT060 FM200600 VRB03KT P6SM SCT080 FM201100 VRB03KT P6SM BKN045 FM201600 12004KT P6SM SCT080 =

KCVG Operations

Calm Wind Configuration is Landing runways 36C and 36R, departing runway 27.

You can expect  this configuration up to and including a 10 knot tailwind.

The Center runway is the old 18R/36L in the default scenery. Additionally, runway 9/27 was lengthened to 12,000 feet when the west runway (18R/36L) was added.

New Scenery is available at FlightSim.com.

On initial contact, arriving aircraft should notify the the controller which scenery they have.

 

JSN Epic template designed by JoomlaShine.com